Platteville, WI

7:19 PM CST on November 17, 2017 (GMT -0600)
Platteville Municipal

Weather History for KPVB - December, 2013

Change the Weather History Date:

Wednesday, December 25, 2013

  Actual Average (KDBQ) Record (KDBQ)
Temperature  
Mean Temperature 18 °F -  
Max Temperature 23 °F 24 °F 58 °F (1936)
Min Temperature 12 °F 9 °F -19 °F (1879)
Degree Days  
Heating Degree Days 48    
Moisture  
Dew Point 15 °F    
Average Humidity 87    
Maximum Humidity 91    
Minimum Humidity 77    
Precipitation  
Precipitation 0.00 in - - ()
Sea Level Pressure  
Sea Level Pressure 30.14 in    
Wind  
Wind Speed 10 mph (SW)    
Max Wind Speed 23 mph    
Max Gust Speed 29 mph    
Visibility 6 miles    
Events      
Averages and records for this station are not official NWS values.
T = Trace of Precipitation, MM = Missing Value Source: NWS Daily Summary

Daily Weather History Graph

Daily Weather History Graph

Search for Another Location

Airport or City:

Trip Planner

Search our weather history database for the weather conditions in past years. The results will help you decide how hot, cold, wet, or windy it might be!

Date:

Astronomy

Dec. 25, 2013 Rise Set
Actual Time 7:30 AM CST 4:33 PM CST
Civil Twilight 6:58 AM CST 5:05 PM CST
Nautical Twilight 6:22 AM CST 5:41 PM CST
Astronomical Twilight 5:48 AM CST 6:15 PM CST
Moon No Moon Rise 11:44 AM CST (12/25)
Length of Visible Light 10h 07m
Length of Day
9h 02m
Waning Gibbous, 48% of the Moon is Illuminated
Dec 25
Waning Gibbous
Jan 1
New
Jan 7
First Quarter
Jan 15
Full
Jan 23
Last Quarter

Hourly Weather History & Observations

Time (CST) Temp. Windchill Dew Point Humidity Pressure Visibility Wind Dir Wind Speed Gust Speed Precip Events Conditions
12:15 AM 12.6 °F -1.4 °F 9.9 °F 89% 30.22 in 2.5 mi SSE 11.5 mph - N/A   Overcast
12:35 AM 12.9 °F -0.2 °F 10.2 °F 89% 30.21 in 2.5 mi South 10.4 mph - N/A   Overcast
12:55 AM 13.1 °F 1.8 °F 10.4 °F 89% 30.20 in 3.0 mi South 8.1 mph - N/A   Overcast
1:15 AM 13.5 °F 2.2 °F 10.4 °F 88% 30.20 in 3.0 mi South 8.1 mph - N/A   Overcast
1:35 AM 13.6 °F 0.0 °F 10.8 °F 88% 30.19 in 4.0 mi South 11.5 mph - N/A   Overcast
1:55 AM 13.8 °F 1.0 °F 10.9 °F 88% 30.18 in 3.0 mi South 10.4 mph - N/A   Mostly Cloudy
2:15 AM 14.0 °F 1.2 °F 10.9 °F 88% 30.19 in 5.0 mi South 10.4 mph - N/A   Mostly Cloudy
2:35 AM 14.2 °F 1.4 °F 11.1 °F 88% 30.19 in 10.0 mi South 10.4 mph - N/A   Overcast
2:55 AM 14.5 °F 1.9 °F 11.3 °F 87% 30.19 in 5.0 mi South 10.4 mph - N/A   Overcast
3:15 AM 14.7 °F 3.8 °F 11.7 °F 88% 30.18 in 5.0 mi South 8.1 mph - N/A   Overcast
3:35 AM 14.9 °F 6.1 °F 12.0 °F 88% 30.18 in 10.0 mi South 5.8 mph - N/A   Overcast
3:55 AM 15.6 °F 4.9 °F 12.7 °F 88% 30.17 in 10.0 mi SSW 8.1 mph - N/A   Overcast
4:15 AM 16.5 °F 6.0 °F 13.1 °F 86% 30.17 in 10.0 mi SSW 8.1 mph - N/A   Overcast
4:35 AM 16.7 °F 5.3 °F 13.1 °F 86% 30.17 in 10.0 mi SW 9.2 mph - N/A   Overcast
4:55 AM 16.7 °F 6.2 °F 13.5 °F 87% 30.17 in 10.0 mi SW 8.1 mph - N/A   Overcast
5:15 AM 16.7 °F 6.2 °F 13.6 °F 88% 30.16 in 10.0 mi SW 8.1 mph - N/A   Overcast
5:35 AM 16.7 °F 7.2 °F 13.8 °F 88% 30.16 in 10.0 mi SW 6.9 mph - N/A   Overcast
5:55 AM 17.1 °F 8.7 °F 14.0 °F 88% 30.16 in 10.0 mi SW 5.8 mph - N/A   Overcast
6:15 AM 17.2 °F 7.8 °F 14.5 °F 89% 30.16 in 10.0 mi SSW 6.9 mph - N/A   Overcast
6:35 AM 17.4 °F 8.0 °F 14.9 °F 90% 30.16 in 10.0 mi SSW 6.9 mph - N/A   Overcast
6:55 AM 17.6 °F 9.3 °F 14.9 °F 89% 30.16 in 10.0 mi SW 5.8 mph - N/A   Overcast
7:15 AM 17.6 °F 8.2 °F 15.1 °F 90% 30.16 in 7.0 mi SW 6.9 mph - N/A   Overcast
7:35 AM 18.0 °F 7.7 °F 15.4 °F 90% 30.16 in 7.0 mi SW 8.1 mph - N/A   Overcast
7:55 AM 18.0 °F 7.7 °F 15.4 °F 90% 30.16 in 5.0 mi SW 8.1 mph - N/A   Overcast
8:15 AM 18.1 °F 6.3 °F 15.6 °F 90% 30.17 in 5.0 mi WSW 10.4 mph - N/A   Overcast
8:35 AM 18.3 °F 9.1 °F 15.8 °F 90% 30.16 in 4.0 mi WSW 6.9 mph - N/A   Overcast
8:55 AM 18.7 °F 6.3 °F 16.3 °F 91% 30.16 in 3.0 mi SW 11.5 mph - N/A   Overcast
9:15 AM 19.0 °F 8.2 °F 16.5 °F 90% 30.16 in 3.0 mi SW 9.2 mph - N/A   Overcast
9:35 AM 19.4 °F 8.6 °F 16.7 °F 89% 30.16 in 4.0 mi SW 9.2 mph - N/A   Overcast
9:55 AM 19.4 °F 9.5 °F 16.7 °F 89% 30.17 in 4.0 mi SW 8.1 mph - N/A   Overcast
10:15 AM 19.4 °F 10.4 °F 17.1 °F 91% 30.16 in 4.0 mi SW 6.9 mph - N/A   Overcast
10:35 AM 19.9 °F 10.1 °F 17.4 °F 90% 30.16 in 4.0 mi SW 8.1 mph - N/A   Overcast
10:55 AM 20.1 °F 9.5 °F 17.4 °F 89% 30.15 in 5.0 mi SW 9.2 mph - N/A   Overcast
11:15 AM 20.7 °F 11.9 °F 18.0 °F 89% 30.14 in 5.0 mi SW 6.9 mph - N/A   Overcast
11:35 AM 20.8 °F 10.4 °F 18.1 °F 89% 30.13 in 4.0 mi SSW 9.2 mph - N/A   Overcast
11:55 AM 21.2 °F 11.7 °F 18.5 °F 89% 30.13 in 4.0 mi SSW 8.1 mph - N/A   Overcast
12:15 PM 21.6 °F 11.3 °F 18.9 °F 89% 30.12 in 1.5 mi SSW 9.2 mph - N/A   Overcast
12:35 PM 21.7 °F 10.2 °F 19.0 °F 89% 30.11 in 1.2 mi SW 11.5 mph - N/A   Overcast
12:55 PM 22.1 °F 10.6 °F 19.2 °F 89% 30.11 in 1.2 mi SW 11.5 mph - N/A   Overcast
1:15 PM 22.1 °F 10.0 °F 19.4 °F 89% 30.10 in 1.8 mi SSW 12.7 mph - N/A   Overcast
1:35 PM 22.5 °F 12.4 °F 19.4 °F 88% 30.09 in 1.8 mi SW 9.2 mph - N/A   Overcast
1:55 PM 22.6 °F 11.9 °F 19.4 °F 87% 30.09 in 1.8 mi SW 10.4 mph - N/A   Overcast
2:15 PM 22.8 °F 12.2 °F 19.4 °F 87% 30.09 in 5.0 mi SW 10.4 mph - N/A   Overcast
2:35 PM 22.6 °F 11.9 °F 19.2 °F 87% 30.09 in 4.0 mi SW 10.4 mph - N/A   Overcast
2:55 PM 22.8 °F 12.9 °F 19.8 °F 88% 30.10 in 2.0 mi SW 9.2 mph - N/A   Overcast
3:15 PM 23.0 °F 13.1 °F 20.1 °F 89% 30.09 in 1.5 mi SW 9.2 mph - N/A   Overcast
3:35 PM 23.0 °F 13.1 °F 20.1 °F 89% 30.10 in 2.5 mi SW 9.2 mph - N/A   Mostly Cloudy
3:55 PM 23.0 °F 12.4 °F 20.3 °F 89% 30.10 in 4.0 mi SW 10.4 mph - N/A   Overcast
4:15 PM 22.5 °F 8.5 °F 19.4 °F 88% 30.11 in 2.5 mi SW 17.3 mph - N/A   Mostly Cloudy
4:35 PM 22.1 °F 10.6 °F 19.2 °F 89% 30.11 in 2.0 mi WSW 11.5 mph - N/A   Mostly Cloudy
4:55 PM 22.1 °F 12.0 °F 19.4 °F 89% 30.10 in 2.5 mi SW 9.2 mph - N/A   Mostly Cloudy
5:15 PM 22.1 °F 11.3 °F 19.4 °F 89% 30.09 in 10.0 mi SW 10.4 mph - N/A   Overcast
5:35 PM 22.1 °F 11.3 °F 19.4 °F 89% 30.09 in 10.0 mi WSW 10.4 mph - N/A   Overcast
5:55 PM 22.1 °F 10.6 °F 19.2 °F 89% 30.09 in 10.0 mi SW 11.5 mph - N/A   Overcast
6:15 PM 22.1 °F 11.3 °F 19.4 °F 89% 30.09 in 10.0 mi SW 10.4 mph - N/A   Overcast
6:35 PM 22.5 °F 11.7 °F 19.8 °F 89% 30.09 in 10.0 mi SW 10.4 mph - N/A   Overcast
6:55 PM 22.6 °F 13.4 °F 19.9 °F 89% 30.09 in 10.0 mi WSW 8.1 mph - N/A   Overcast
7:15 PM 22.8 °F 12.2 °F 20.1 °F 89% 30.09 in 7.0 mi WSW 10.4 mph - N/A   Overcast
7:35 PM 22.6 °F 13.4 °F 19.9 °F 89% 30.09 in 7.0 mi WSW 8.1 mph - N/A   Mostly Cloudy
7:55 PM 20.5 °F 9.2 °F 18.1 °F 91% 30.09 in 7.0 mi WSW 10.4 mph - N/A   Scattered Clouds
8:15 PM 21.2 °F 6.8 °F 18.5 °F 89% 30.09 in 10.0 mi West 17.3 mph 23.0 mph N/A   Clear
8:35 PM 20.8 °F 4.4 °F 16.2 °F 82% 30.09 in 10.0 mi West 23.0 mph 28.8 mph N/A   Scattered Clouds
8:55 PM 19.0 °F 4.5 °F 12.9 °F 77% 30.09 in 10.0 mi West 16.1 mph 25.3 mph N/A   Scattered Clouds
9:15 PM 18.0 °F 0.9 °F 12.4 °F 79% 30.11 in 10.0 mi West 21.9 mph 27.6 mph N/A   Clear
9:35 PM 16.5 °F 1.8 °F 11.3 °F 80% 30.11 in 10.0 mi West 15.0 mph 21.9 mph N/A   Clear
9:55 PM 16.0 °F 2.3 °F 10.8 °F 80% 30.11 in 10.0 mi West 12.7 mph 19.6 mph N/A   Clear
10:15 PM 15.4 °F 1.6 °F 10.2 °F 80% 30.11 in 10.0 mi West 12.7 mph 17.3 mph N/A   Clear
10:35 PM 14.9 °F 3.1 °F 9.7 °F 80% 30.12 in 10.0 mi West 9.2 mph 16.1 mph N/A   Clear
10:55 PM 14.0 °F 2.0 °F 9.3 °F 82% 30.13 in 10.0 mi WNW 9.2 mph 17.3 mph N/A   Clear
11:15 PM 13.8 °F 1.8 °F 9.0 °F 81% 30.13 in 10.0 mi West 9.2 mph 16.1 mph N/A   Clear
11:35 PM 13.3 °F 0.3 °F 8.6 °F 82% 30.13 in 10.0 mi West 10.4 mph - N/A   Clear
11:55 PM 12.6 °F -2.0 °F 7.7 °F 81% 30.13 in 10.0 mi West 12.7 mph 18.4 mph N/A   Clear